GW5164 Weather Reports


Display with metric or nautical units.
time (UTC)temp
F
wind
direction
speed
MPH
gust
MPH
rain 1hr
in
rain 24hr
in
rain mn
in
humidity
%
barometer
mb
20260508134555 60 228 0.0 3.0 0.00 0.00 0.00 54 1018.0
20260508133101 58 7 1.0 4.0 0.00 0.00 0.00 57 1017.9
20260508131555 58 148 1.0 3.0 0.00 0.00 0.00 64 1017.8
20260508130059 56 117 1.0 3.0 0.00 0.00 0.00 63 1017.8
20260508124558 55 127 1.0 2.0 0.00 0.00 0.00 70 1017.7
20260508123056 53 138 1.0 2.0 0.00 0.00 0.00 77 1017.6
20260508121606 51 131 0.0 2.0 0.00 0.00 0.00 85 1017.5
20260508120056 49 113 0.0 2.0 0.00 0.00 0.00 88 1017.3
20260508114556 47 127 1.0 2.0 0.00 0.00 0.00 88 1017.1
20260508113108 47 104 0.0 1.0 0.00 0.00 0.00 91 1016.9
20260508111554 43 0 0.0 0.0 0.00 0.00 0.00 93 1016.8
20260508110057 41 130 0.0 1.0 0.00 0.00 0.00 92 1016.6
20260508104557 41 316 0.0 1.0 0.00 0.00 0.00 94 1016.3
20260508103112 41 0 0.0 1.0 0.00 0.00 0.00 93 1016.0
20260508101556 41 0 0.0 1.0 0.00 0.00 0.00 94 1015.9
20260508100054 41 0 0.0 1.0 0.00 0.00 0.00 94 1015.7
20260508094606 41 0 0.0 0.0 0.00 0.00 0.00 94 1015.6
20260508093056 41 257 0.0 1.0 0.00 0.00 0.00 94 1015.5
20260508091600 42 0 0.0 1.0 0.00 0.00 0.00 94 1015.4
20260508090054 42 0 0.0 1.0 0.00 0.00 0.00 94 1015.3
20260508084553 42 0 0.0 1.0 0.00 0.00 0.00 94 1015.2
20260508083132 43 0 0.0 1.0 0.00 0.00 0.00 94 1015.2
20260508081556 43 0 0.0 2.0 0.00 0.00 0.00 94 1015.1
20260508080059 43 6 0.0 1.0 0.00 0.00 0.00 94 1014.9
20260508074555 43 0 0.0 1.0 0.00 0.00 0.00 93 1014.8
20260508073104 43 0 0.0 1.0 0.00 0.00 0.00 93 1014.9
20260508071556 44 0 0.0 1.0 0.00 0.00 0.00 93 1014.6
20260508070059 44 0 0.0 1.0 0.00 0.00 0.00 93 1014.6
20260508064608 44 0 0.0 1.0 0.00 0.00 0.00 93 1014.4
20260508063056 44 0 0.0 1.0 0.00 0.00 0.00 93 1014.4
20260508061603 44 0 0.0 1.0 0.00 0.00 0.00 93 1014.3
20260508060107 44 0 0.0 0.0 0.00 0.00 0.00 93 1014.4
20260508054605 45 0 0.0 1.0 0.00 0.00 0.00 92 1014.4
20260508053104 45 0 0.0 2.0 0.00 0.00 0.00 92 1014.3
20260508051556 45 328 0.0 2.0 0.00 0.00 0.00 92 1014.2
20260508050059 46 0 0.0 1.0 0.00 0.00 0.00 91 1014.1
20260508044553 46 0 0.0 1.0 0.00 0.00 0.00 92 1014.0
20260508043056 46 0 0.0 1.0 0.00 0.00 0.00 92 1014.0
20260508041600 46 0 0.0 1.0 0.00 0.00 0.00 91 1013.9
20260508040110 47 0 0.0 1.0 0.00 0.00 0.00 90 1013.9
20260508034557 47 0 0.0 1.0 0.00 0.00 0.00 90 1013.9
20260508033101 47 0 0.0 1.0 0.00 0.00 0.00 89 1013.7
20260508031600 49 286 1.0 2.0 0.00 0.00 0.00 87 1013.9
20260508030114 49 0 1.0 4.0 0.00 0.00 0.00 87 1013.7
20260508024604 50 0 0.0 1.0 0.00 0.00 0.00 85 1013.4
20260508023055 51 298 1.0 3.0 0.00 0.00 0.00 82 1013.3
20260508021553 51 0 0.0 0.0 0.00 0.00 0.00 79 1013.3
20260508020054 52 0 0.0 2.0 0.00 0.00 0.00 78 1012.9
20260508014555 53 252 1.0 3.0 0.00 0.00 0.00 75 1012.6
20260508013054 54 0 0.0 1.0 0.00 0.00 0.00 72 1012.2
20260508011605 55 199 0.0 2.0 0.00 0.00 0.00 70 1011.9
20260508010106 57 0 0.0 3.0 0.00 0.00 0.00 64 1011.6
20260508004603 58 316 1.0 16.0 0.00 0.00 0.00 62 1011.5
20260508003110 59 299 1.0 12.0 0.00 0.00 0.00 61 1011.4
20260508001555 59 309 2.0 9.0 0.00 0.00 0.00 61 1011.3
20260508000057 60 262 2.0 15.0 0.00 0.00 0.00 63 1011.3
20260507234554 61 27 7.0 15.0 0.00 0.00 0.00 61 1011.2
20260507233055 63 274 3.0 11.0 0.00 0.00 0.00 60 1011.1
20260507231609 65 314 5.0 12.0 0.00 0.00 0.00 61 1010.9
20260507230056 65 269 3.0 10.0 0.00 0.00 0.00 64 1010.6
20260507224606 66 293 3.0 9.0 0.00 0.00 0.00 63 1010.2
20260507223057 66 323 3.0 8.0 0.00 0.00 0.00 65 1009.8
20260507221556 64 269 2.0 6.0 0.00 0.00 0.00 83 1009.6
20260507220056 64 69 3.0 11.0 0.00 0.00 0.00 84 1009.3
20260507214607 63 105 3.0 8.0 0.00 0.00 0.00 85 1009.2
20260507213107 63 86 3.0 8.0 0.00 0.00 0.00 84 1009.1
20260507211553 63 64 4.0 9.0 0.00 0.00 0.00 84 1009.0
20260507210056 64 101 6.0 16.0 0.00 0.00 0.00 84 1008.8
20260507204602 64 108 6.0 13.0 0.00 0.00 0.00 83 1008.5
20260507203057 65 131 7.0 14.0 0.00 0.00 0.00 82 1008.3
20260507201557 66 103 7.0 14.0 0.00 0.00 0.00 80 1008.2
20260507200057 66 37 5.0 13.0 0.00 0.00 0.00 81 1008.1
20260507194554 67 44 6.0 13.0 0.00 0.00 0.00 81 1008.0
20260507193110 67 63 6.0 14.0 0.00 0.00 0.00 82 1008.0
20260507191600 67 88 5.0 12.0 0.00 0.00 0.00 84 1008.3
20260507190105 69 39 4.0 11.0 0.00 0.00 0.00 82 1008.3
20260507184556 70 170 1.0 6.0 0.00 0.00 0.00 84 1007.7
20260507183101 72 243 1.0 4.0 0.00 0.00 0.00 79 1008.0
20260507181557 73 199 2.0 8.0 0.00 0.00 0.00 74 1008.0
20260507180104 73 142 5.0 10.0 0.00 0.00 0.00 72 1007.7
20260507174557 75 122 3.0 8.0 0.00 0.00 0.00 69 1008.0
20260507173057 75 223 1.0 7.0 0.00 0.00 0.00 69 1007.9
20260507171556 74 145 1.0 5.0 0.00 0.00 0.00 72 1008.3
20260507170054 74 197 3.0 8.0 0.00 0.00 0.00 73 1008.3
20260507164556 72 113 2.0 5.0 0.00 0.00 0.00 77 1008.5
20260507163054 72 241 1.0 6.0 0.00 0.00 0.00 74 1008.6
20260507161604 72 165 1.0 3.0 0.00 0.00 0.00 78 1008.9
20260507154558 69 307 0.0 6.0 0.00 0.00 0.00 80 1008.6
20260507153059 69 146 2.0 4.0 0.00 0.00 0.00 83 1008.7
20260507151555 68 176 1.0 4.0 0.00 0.00 0.00 86 1009.2
20260507150058 67 220 2.0 5.0 0.00 0.00 0.00 89 1009.2
20260507144558 66 123 1.0 5.0 0.00 0.00 0.00 92 1009.4
20260507143054 64 265 0.0 3.0 0.00 0.00 0.00 93 1009.4
20260507141601 64 0 0.0 3.0 0.00 0.00 0.00 93 1009.4
20260507140116 64 0 0.0 3.0 0.00 0.00 0.00 94 1009.3